#timestamp,LO_Frequency,Hit,StdDev 
1547895615.7,286047000.1,N
1547895635.6,286046998.5,N
1547895655.4,286047001.7,N
1547895675.3,286047001.0,N
1547895695.1,286047002.0,N
1547895696.0,286047002.0,N
1547895715.8,286047001.9,N
1547895735.7,286047001.1,N
1547895755.5,286046997.3,N
1547895775.3,286046997.4,N
1547895795.2,286046992.0,Y
1547895815.0,286046989.0,P
1547895815.9,286046989.0,N
1547895835.8,286046987.6,N
1547895855.6,286046989.5,N
1547895875.4,286046987.0,N
1547895895.3,286046986.0,Y
1547895915.1,286046992.0,P
1547895935.9,286046992.1,P
1547895955.7,286046997.4,P
1547895975.5,286046991.8,Y
1547895995.4,286046996.5,P
1547896015.2,286046999.5,N
1547896035.1,286046995.7,N
1547896036.0,286046995.7,N
1547896055.8,286046992.9,Y
1547896075.6,286046995.0,P
1547896095.5,286046993.4,P
1547896115.3,286046992.0,P
1547896135.2,286046996.2,N
1547896155.9,286046997.9,N
1547896175.7,286046998.9,N
1547896195.6,286046991.7,Y
1547896215.4,286046997.8,P
1547896235.2,286046999.4,N
1547896255.1,286046997.9,N
1547896256.0,286046997.9,N
1547896275.8,286046997.0,N
1547896295.7,286047006.7,Y
1547896315.5,286047007.4,P
1547896335.3,286047007.3,N
1547896355.2,286047008.9,N
1547896375.0,286047005.7,N
1547896375.9,286047005.7,N
1547896395.8,286047005.5,N
1547896415.6,286046999.8,N
1547896435.4,286046998.3,N
1547896455.3,286047002.7,N
1547896475.1,286047001.1,N
1547896495.8,286047000.3,N
1547896515.7,286046999.0,N
1547896535.5,286046999.5,N
1547896555.4,286046998.5,N
1547896575.2,286046997.1,N
1547896595.0,286046995.2,N
1547896595.9,286046995.2,N
1547896615.8,286046995.9,N
1547896635.6,286046992.5,N
1547896655.5,286046999.0,N
1547896675.3,286046994.1,N
1547896695.1,286046991.5,N
1547896715.9,286046987.7,N
1547896735.7,286046989.4,N
1547896755.6,286046989.5,N
1547896775.4,286046987.6,N
1547896795.2,286046989.3,N
1547896815.1,286046988.2,N
1547896816.0,286046988.2,N
1547896835.8,286046987.2,N
1547896855.6,286046990.0,N
1547896875.5,286046984.9,N
1547896895.3,286046982.1,N
1547896915.2,286046981.5,N
1547896935.9,286046985.2,N
1547896955.7,286046983.0,N
1547896975.6,286046980.8,Y
1547896995.4,286046989.5,P
1547897015.3,286046992.9,P
1547897035.1,286046995.8,N
1547897036.0,286046995.8,N
1547897055.8,286046990.9,Y
1547897075.7,286046993.0,P
1547897095.5,286046993.3,P
1547897115.3,286046993.3,P
1547897135.2,286046991.8,Y
1547897155.0,286047001.8,P
1547897155.9,286047001.8,N
1547897175.8,286047003.6,N
1547897195.6,286047002.9,N
1547897215.4,286047000.0,N
1547897235.3,286046998.4,N
1547897255.1,286046998.3,N
1547897275.9,286046997.5,N
1547897295.7,286046994.9,N
1547897315.5,286046997.4,N
1547897335.4,286046994.8,N
1547897355.2,286046992.0,N
1547897375.1,286046994.0,N
1547897376.0,286046994.0,N
1547897395.8,286046993.7,N
1547897415.6,286046997.8,N
1547897435.5,286046995.5,N
1547897455.3,286046998.2,N
1547897475.2,286047000.7,N
1547897495.9,286046996.9,N
1547897515.7,286046997.5,N
1547897535.6,286046999.2,N
1547897555.4,286047002.9,N
1547897575.2,286047004.4,N
1547897595.1,286047002.0,N
1547897596.0,286047002.0,N
1547897615.8,286047001.2,N
1547897635.7,286046998.1,N
1547897655.5,286046994.9,N
1547897675.3,286046997.7,N
1547897695.2,286046998.7,N
1547897715.0,286047001.4,N
1547897715.9,286047001.4,N
1547897735.8,286047005.8,N
1547897755.6,286047006.9,N
1547897775.5,286047003.1,N
1547897795.3,286047005.6,N
1547897815.1,286047004.3,N
1547897835.9,286047004.2,N
1547897855.7,286047002.1,N
1547897875.5,286047001.3,N
1547897895.4,286047001.3,N
1547897915.2,286047000.9,N
1547897935.1,286047003.5,N
1547897936.0,286047003.5,N
1547897955.8,286047002.0,N
1547897975.6,286046998.9,N
1547897995.5,286046996.5,N
1547898015.3,286046997.4,N
1547898035.1,286046994.5,N
1547898055.9,286046991.5,N
1547898075.7,286046987.0,Y
1547898095.6,286046986.1,P
1547898115.4,286046988.1,N
1547898135.3,286046989.5,N
1547898155.1,286046986.1,N
1547898175.8,286046984.1,N
1547898195.7,286046987.9,N
1547898215.5,286046987.8,N
1547898235.4,286046983.1,Y
1547898255.2,286046997.6,P
1547898275.0,286046994.8,N
1547898275.9,286046994.8,N
1547898295.8,286046988.5,Y
1547898315.6,286046999.3,P
1547898335.5,286046996.8,N
1547898355.3,286046993.3,P
1547898375.1,286046996.2,N
1547898395.9,286046996.1,N
1547898415.7,286046995.6,N
1547898435.6,286046991.7,Y
1547898455.4,286046991.5,P
1547898475.2,286046992.8,P
1547898495.1,286046990.9,P
1547898496.0,286046990.9,Y
1547898515.8,286046998.2,P
1547898535.6,286046993.9,N
1547898555.5,286046991.5,P
1547898575.3,286046988.0,Y
1547898595.2,286046993.5,P
1547898615.0,286046992.2,P
1547898615.9,286046992.2,P
1547898635.7,286046995.7,Y
1547898655.6,286046998.7,P
1547898675.4,286047000.4,N
1547898695.3,286046996.7,N
1547898715.1,286046994.4,N
1547898735.8,286046992.6,N
1547898755.7,286046996.0,N
1547898775.5,286046991.8,Y
1547898795.4,286046991.7,P
1547898815.2,286046991.8,P
1547898835.0,286046995.6,N
1547898835.9,286046995.6,N
1547898855.8,286046991.6,Y
1547898875.6,286046995.3,P
1547898895.5,286046999.1,N
1547898915.3,286046995.5,N
1547898935.1,286046999.6,N
1547898955.9,286047000.5,N
1547898975.7,286047002.1,N
1547898995.5,286047001.5,N
1547899015.4,286047003.2,N
1547899035.2,286047005.8,N
1547899055.1,286047006.5,N
1547899056.0,286047006.5,N
1547899075.8,286047006.7,N
1547899095.6,286047002.2,N
1547899115.5,286047007.4,N
1547899135.3,286047006.2,N
1547899155.2,286047007.0,N
1547899175.9,286047002.6,N
1547899195.7,286047001.2,N
